RIGIDSPHERE 2 (LCS 4)

Track RIGIDSPHERE 2 (LCS 4) now!
10-day predictions
RIGIDSPHERE 2 (LCS 4) is classified as:


NORAD ID: 5398
Int'l Code: 1971-067E
Perigee: 743.6 km
Apogee: 833.1 km
Inclination: 87.6 °
Period: 100.5 minutes
Semi major axis: 7159 km
RCS: 0.9311 m2 (medium)
Launch date: August 7, 1971
Source: United States (US)
Your satellite tracking list
Your tracking list is empty





NASA's NSSDC Master Catalog

Two Line Element Set (TLE):
1 05398U 71067E   15124.50088549  .00000492  00000-0  16947-3 0  9993
2 05398 087.6264 019.7685 0062541 320.4236 039.2402 14.33152548291811

Source of the keplerian elements: AFSPC

N2YO: 5017